Temp
76 75 72 73 72 74 72 77 72 73 71 70 69 68 66 64 64 62 61 61 59 58 59 58 57 57 58 58 58 58 56 56 51 55 57 59 57 58 58 58 59 57 59
76 75 73 71 70 69 71 70 70 69 69 68 66 64 63 61 59 59 59 58 57 56 56 56 54 57 53 54 56 55 55 55 53 51 56 57 57 56 56 55 56 59 56
75 72 71 68 68 69 68 67 68 66 65 65 62 61 58 57 56 55 56 56 54 54 53 52 52 52 51 51 53 53 54 54 54 54 54 57 56 52 52 52 52 52 55
73 70 66 64 64 64 63 63 63 63 61 59 58 56 55 55 56 55 55 54 53 52 53 52 52 50 49 49 52 51 52 51 52 52 52 52 52 50 50 47 46 48 47
63 63 61 61 62 61 61 59 59 58 56 54 53 52 52 53 53 53 52 52 51 52 53 53 52 54 55 52 50 49 50 50 50 50 49 48 48 47 45 46 44 44 44
63 60 59 59 59 57 56 54 53 52 51 51 51 51 51 52 49 51 52 53 54 54 53 51 50 50 51 53 54 53 51 47 47 47 47 47 47 47 46 44 43 40 37
59 58 56 54 54 54 53 52 50 50 50 49 49 49 48 48 48 49 52 54 53 51 51 51 52 51 46 47 50 54 53 51 49 46 46 48 47 46 45 43 42 40 39
55 55 54 53 52 52 52 51 50 49 48 47 48 49 50 49 47 48 50 51 49 49 49 50 47 45 44 44 47 52 52 51 51 54 50 51 48 45 44 45 43 41 41
54 54 53 52 52 51 50 49 49 48 48 48 49 50 50 49 46 46 52 50 48 46 46 47 47 45 43 42 49 49 49 50 55 53 49 48 45 45 45 44 40 37 36
51 52 53 52 51 50 49 48 47 49 50 52 51 50 48 46 43 45 53 54 49 48 46 45 45 44 42 42 44 47 46 48 48 50 52 50 50 48 48 45 43 37 37
48 50 51 51 50 49 48 48 48 49 49 48 48 49 48 48 45 44 47 55 54 53 51 49 48 44 43 42 41 47 45 44 49 52 51 50 49 48 48 47 46 41 38
47 48 48 49 49 48 47 46 46 47 47 47 48 49 50 48 47 45 45 47 51 51 50 50 49 44 43 44 43 43 43 49 53 52 48 45 44 45 46 46 46 45 44
46 47 47 48 47 47 46 45 44 45 48 49 49 48 48 50 49 45 46 47 49 50 51 48 47 43 42 44 43 44 50 51 51 49 45 44 45 46 46 45 46 47 46
45 46 46 46 46 46 46 46 47 50 51 52 51 49 49 49 50 50 50 49 46 51 48 48 49 48 47 47 52 52 52 51 50 48 45 46 46 45 44 45 43 44 42
46 45 46 45 42 39 39 44 43 45 53 53 52 54 50 46 45 42 48 50 49 46 44 53 52 51 51 51 52 51 51 50 48 47 45 45 45 44 44 45 44 43 40
44 44 43 44 44 43 41 38 40 41 41 41 43 46 45 41 40 41 41 41 44 44 52 51 49 50 50 50 50 49 48 48 48 47 45 45 43 43 42 44 44 42 39
43 42 42 43 43 43 42 42 40 41 40 39 38 39 40 39 39 40 41 43 44 49 51 50 49 49 49 50 50 49 47 47 47 46 45 44 43 43 42 42 42 41 38
43 43 42 41 41 45 46 47 47 45 43 43 41 43 40 41 43 44 44 45 52 52 51 50 49 49 50 50 50 49 47 46 45 45 43 44 44 43 42 42 41 39 38
43 42 42 42 43 49 50 49 48 46 44 44 46 43 41 40 40 41 41 53 52 51 51 50 50 50 49 50 50 50 47 44 43 43 44 44 45 44 43 43 43 38 37
43 42 43 47 51 51 50 49 48 47 47 48 48 48 51 51 53 52 53 53 52 52 52 51 51 50 50 49 48 48 47 45 43 42 43 45 46 46 45 43 44 40 38
45 48 44 53 52 51 50 49 50 50 50 50 50 46 39 53 51 51 52 52 52 52 51 51 52 51 50 48 46 46 45 44 43 41 41 45 45 46 47 45 45 43 40
48 52 55 54 54 52 52 53 53 53 51 51 52 49 40 54 53 52 51 51 52 52 52 52 51 49 48 46 44 44 42 41 41 41 40 44 46 48 47 45 45 44 41
50 56 57 56 55 48 55 55 53 52 52 53 55 55 54 53 52 52 52 52 52 51 51 50 49 47 47 46 46 43 41 38 39 40 39 43 45 46 46 45 44 43 41
52 56 56 55 56 55 54 53 52 49 54 55 54 54 53 53 52 52 52 52 52 52 51 50 47 46 44 44 44 44 41 36 39 39 41 46 44 46 45 45 45 43 42
53 57 56 56 56 54 54 54 54 56 56 55 54 54 54 53 53 53 52 52 51 50 49 49 48 46 44 42 42 41 35 34 38 34 41 48 47 46 45 45 45 45 43
53 56 57 58 57 56 55 55 56 56 56 56 55 54 54 53 53 53 52 52 51 50 48 47 46 45 43 41 39 35 34 34 36 34 45 48 48 46 45 45 45 45 44
MSLP
994.82 995.27 996.08 997.04 997.37 998.04 999.25 998.82 1000.53 1002.06 1004.23 1005.61 1006.85 1008.16 1009.36 1010.29 1011.27 1012.25 1012.51 1013.55 1013.95 1014.59 1014.74 1015.27 1015.58 1015.39 1015.94 1015.34 1014.87 1015.36 1015.34 1015.53 1015.73 1015.05 1014.22 1013.66 1013.25 1013.10 1013.01 1012.28 1012.06 1011.75 1011.46
994.54 994.22 995.91 994.33 997.62 998.08 999.13 999.86 1000.99 1003.19 1004.66 1006.07 1007.47 1008.97 1010.19 1011.35 1011.85 1012.64 1013.51 1014.33 1014.61 1015.26 1015.51 1015.81 1016.13 1016.37 1016.42 1015.61 1015.61 1016.09 1016.08 1016.19 1015.86 1015.22 1014.61 1013.95 1013.76 1013.89 1013.26 1012.95 1012.86 1012.18 1011.58
994.90 994.91 995.00 995.20 997.28 998.36 999.68 1000.97 1002.31 1003.70 1005.43 1006.97 1008.39 1009.67 1010.94 1012.05 1012.19 1013.37 1014.00 1014.51 1015.00 1015.76 1016.17 1016.74 1016.84 1017.07 1016.43 1016.59 1016.48 1016.88 1017.05 1016.87 1016.24 1015.45 1015.16 1014.72 1014.42 1014.65 1014.15 1013.73 1013.56 1012.81 1012.02
995.18 996.06 996.93 997.04 998.36 998.93 1000.99 1002.15 1003.17 1004.47 1006.50 1007.97 1009.24 1010.76 1011.83 1012.18 1012.81 1013.46 1014.16 1014.90 1015.25 1016.11 1016.55 1016.93 1017.16 1017.13 1017.18 1017.09 1017.20 1017.63 1017.31 1017.01 1016.82 1016.20 1015.76 1015.75 1015.58 1015.41 1015.07 1014.85 1013.82 1013.07 1012.42
996.80 997.78 999.00 998.75 998.89 1000.72 1002.04 1003.49 1004.73 1006.00 1007.40 1008.97 1010.48 1011.76 1012.41 1013.20 1013.62 1014.29 1014.82 1015.15 1015.77 1016.52 1016.85 1017.15 1017.45 1017.34 1017.42 1017.69 1018.06 1017.88 1017.59 1017.53 1017.41 1017.13 1016.79 1016.62 1016.12 1015.67 1015.59 1015.19 1014.85 1013.84 1012.61
997.83 998.79 999.55 999.47 1000.05 1001.49 1003.29 1004.49 1005.79 1007.53 1008.64 1009.37 1011.52 1012.36 1012.90 1013.77 1014.35 1015.01 1015.23 1015.73 1015.84 1016.75 1016.79 1017.32 1017.40 1017.80 1018.13 1017.95 1017.91 1017.75 1017.73 1018.12 1018.08 1017.62 1017.19 1016.82 1016.76 1016.35 1016.15 1015.70 1015.17 1014.15 1013.12
999.24 1000.23 1000.11 1000.02 1002.29 1003.60 1004.29 1005.70 1006.76 1008.41 1009.49 1010.82 1012.25 1012.97 1013.93 1014.69 1014.92 1015.30 1015.74 1016.50 1016.85 1017.35 1017.35 1017.42 1017.71 1018.37 1018.44 1018.41 1018.00 1017.57 1017.52 1017.81 1017.77 1017.53 1016.88 1016.77 1016.75 1016.78 1016.59 1015.98 1015.54 1014.93 1014.33
1000.12 1000.48 1000.53 1002.33 1003.66 1004.27 1004.93 1006.19 1008.53 1009.47 1010.53 1011.64 1012.85 1013.86 1014.72 1015.34 1015.61 1016.12 1016.65 1017.32 1017.65 1018.03 1018.11 1018.41 1018.65 1018.81 1018.70 1018.86 1018.51 1018.29 1018.15 1017.83 1017.44 1016.98 1016.63 1016.88 1017.10 1017.12 1016.83 1016.44 1015.76 1015.13 1014.43
1002.23 1001.45 1001.11 1001.75 1003.82 1005.16 1005.80 1007.94 1009.42 1010.68 1012.07 1012.88 1013.88 1014.43 1015.23 1015.94 1016.29 1016.87 1017.51 1017.93 1018.25 1018.61 1018.68 1018.96 1019.29 1019.16 1019.06 1019.04 1018.95 1018.92 1018.53 1017.90 1017.12 1016.48 1016.56 1016.86 1017.27 1017.03 1016.95 1016.50 1015.70 1014.73 1014.47
1003.26 1003.67 1003.84 1004.12 1004.69 1006.70 1007.91 1009.21 1010.87 1011.83 1012.45 1014.07 1015.03 1015.23 1016.06 1016.63 1016.81 1017.05 1017.57 1017.96 1018.30 1019.08 1019.17 1019.57 1019.67 1019.59 1019.54 1019.76 1019.67 1019.19 1018.76 1018.17 1017.48 1016.89 1016.99 1016.88 1016.99 1017.00 1016.69 1016.45 1015.61 1015.04 1014.78
1003.36 1006.07 1004.56 1005.92 1006.45 1007.63 1008.87 1010.29 1011.47 1012.59 1013.55 1014.72 1015.46 1015.93 1016.41 1016.71 1017.14 1017.26 1017.63 1017.85 1018.25 1018.50 1019.27 1019.89 1020.03 1019.79 1019.79 1019.82 1019.74 1019.21 1018.90 1018.35 1017.32 1016.96 1017.41 1017.45 1017.45 1017.08 1016.70 1016.28 1015.55 1015.30 1014.88
1004.93 1007.66 1006.91 1007.95 1008.43 1009.07 1009.01 1011.81 1012.47 1013.15 1014.21 1015.25 1015.73 1016.16 1016.79 1017.63 1017.95 1017.91 1018.20 1018.41 1018.35 1019.02 1019.65 1019.96 1019.84 1019.91 1020.12 1019.87 1019.65 1019.38 1018.95 1018.49 1017.90 1017.45 1018.19 1018.28 1018.18 1017.43 1016.83 1016.45 1015.43 1015.06 1014.51
1007.92 1008.32 1008.49 1009.40 1009.88 1010.35 1010.71 1012.34 1013.17 1014.38 1015.07 1015.52 1015.91 1016.81 1017.62 1018.31 1018.73 1018.72 1019.21 1019.03 1019.15 1019.53 1019.76 1019.78 1019.78 1019.64 1019.71 1019.85 1019.58 1019.61 1019.36 1018.83 1018.49 1018.43 1018.80 1018.95 1018.67 1017.84 1016.99 1016.45 1015.28 1014.96 1014.08
1009.06 1009.27 1009.68 1009.79 1010.81 1011.70 1012.46 1013.69 1014.14 1014.72 1015.36 1015.87 1016.64 1017.49 1018.19 1018.90 1019.45 1019.69 1019.92 1019.67 1019.83 1019.95 1020.01 1020.08 1019.84 1019.72 1019.70 1019.76 1019.93 1019.77 1019.79 1019.56 1019.10 1019.37 1019.57 1019.37 1018.69 1017.77 1017.22 1016.47 1015.62 1014.71 1014.12
1009.48 1010.09 1010.50 1011.33 1012.23 1013.48 1014.60 1014.84 1015.30 1015.68 1015.68 1016.37 1017.08 1017.49 1018.51 1019.63 1020.21 1019.92 1019.83 1019.87 1019.93 1020.00 1020.03 1019.95 1019.98 1020.30 1020.39 1020.18 1019.93 1020.20 1020.52 1020.23 1019.80 1019.95 1019.95 1019.48 1018.68 1018.15 1017.49 1016.75 1016.00 1015.09 1014.70
1010.45 1011.05 1011.76 1012.48 1013.58 1014.56 1015.18 1016.22 1016.86 1016.50 1016.85 1017.43 1017.81 1018.51 1019.80 1020.12 1020.15 1020.03 1020.13 1020.08 1020.29 1020.29 1020.35 1020.74 1020.77 1020.82 1020.71 1020.68 1020.61 1020.78 1021.11 1020.90 1020.56 1020.60 1020.15 1019.62 1019.23 1018.55 1017.86 1017.19 1016.41 1015.89 1015.39
1011.49 1012.18 1013.07 1013.75 1014.45 1014.95 1015.69 1016.24 1017.09 1018.49 1018.55 1018.63 1019.35 1020.17 1020.31 1020.31 1020.61 1020.41 1020.13 1020.21 1020.41 1020.77 1021.13 1021.23 1021.33 1021.25 1021.36 1021.16 1021.05 1021.43 1021.70 1021.63 1021.53 1021.07 1020.51 1020.15 1019.52 1018.94 1018.37 1017.72 1017.07 1016.48 1015.87
1012.71 1013.43 1014.03 1014.76 1015.07 1015.65 1016.18 1016.77 1017.33 1018.23 1019.30 1020.28 1020.89 1020.99 1020.96 1020.95 1020.83 1020.62 1020.87 1021.03 1021.32 1021.60 1021.61 1021.85 1021.81 1021.98 1021.94 1021.68 1021.62 1021.87 1022.10 1022.35 1022.13 1021.43 1021.15 1020.44 1019.76 1019.29 1018.75 1018.13 1017.60 1017.04 1016.43
1013.61 1014.51 1015.06 1015.87 1016.14 1016.39 1016.72 1017.26 1018.22 1018.94 1019.75 1020.55 1021.39 1021.55 1021.32 1021.12 1020.96 1021.11 1021.43 1021.50 1021.98 1022.02 1022.29 1022.32 1022.35 1022.53 1022.56 1022.43 1022.38 1022.36 1022.69 1022.91 1022.47 1022.17 1021.44 1020.68 1019.96 1019.40 1019.19 1018.57 1017.89 1017.51 1016.98
1014.90 1015.44 1015.91 1016.05 1016.36 1016.71 1017.41 1017.91 1018.66 1019.54 1020.12 1020.57 1021.21 1021.35 1021.25 1021.13 1021.51 1021.90 1021.99 1022.21 1022.49 1022.69 1022.64 1022.81 1022.97 1023.19 1023.22 1023.36 1023.41 1023.42 1023.44 1023.32 1023.18 1022.73 1022.13 1021.10 1020.31 1019.69 1019.44 1018.83 1018.12 1017.87 1017.50
1015.59 1015.58 1015.69 1015.87 1016.36 1017.16 1017.80 1018.38 1018.89 1019.52 1020.11 1020.61 1021.03 1021.27 1021.24 1021.71 1022.23 1022.54 1022.73 1023.25 1023.49 1023.25 1023.28 1023.34 1023.60 1023.89 1024.21 1024.45 1024.49 1024.45 1024.37 1024.24 1023.90 1023.36 1022.79 1021.75 1020.86 1020.07 1019.75 1019.20 1018.53 1018.33 1018.05
1015.41 1015.22 1015.54 1016.05 1016.78 1017.47 1017.92 1018.40 1018.90 1019.63 1020.12 1020.67 1020.80 1021.40 1021.79 1022.26 1022.67 1023.18 1023.70 1023.95 1023.91 1023.88 1024.06 1024.10 1024.36 1024.91 1025.28 1025.37 1025.36 1025.29 1025.43 1025.15 1024.65 1023.99 1023.34 1022.39 1021.51 1020.73 1020.15 1019.67 1019.09 1018.83 1018.54
1015.42 1015.29 1015.83 1016.45 1016.93 1017.43 1017.93 1018.70 1019.49 1020.03 1020.46 1020.82 1021.21 1021.67 1022.29 1022.88 1023.39 1023.79 1023.99 1024.15 1024.35 1024.82 1025.02 1025.23 1025.75 1026.18 1026.18 1026.18 1025.96 1026.09 1026.15 1026.04 1025.41 1024.62 1023.82 1022.95 1022.03 1021.32 1020.84 1020.25 1019.76 1019.46 1019.19
1016.01 1015.96 1016.18 1016.71 1017.15 1017.59 1018.51 1019.22 1019.91 1020.34 1020.67 1021.05 1021.62 1022.16 1022.85 1023.47 1023.94 1024.11 1024.29 1024.76 1025.16 1025.39 1025.72 1026.39 1026.92 1027.16 1027.16 1026.93 1026.93 1026.69 1026.74 1026.60 1025.71 1025.00 1024.21 1023.01 1022.62 1021.95 1021.65 1020.99 1020.47 1020.28 1020.02
1016.37 1016.45 1016.77 1017.09 1017.61 1018.21 1018.91 1019.50 1020.00 1020.39 1020.84 1021.54 1022.23 1022.77 1023.43 1023.87 1024.27 1024.61 1025.01 1025.52 1025.91 1026.35 1026.89 1027.29 1027.55 1027.70 1027.83 1027.96 1027.87 1027.55 1026.99 1026.41 1025.86 1025.34 1024.29 1023.42 1023.17 1022.62 1022.33 1021.83 1021.29 1020.89 1020.71
1016.93 1017.02 1017.10 1017.32 1018.04 1018.71 1019.28 1019.67 1020.19 1020.81 1021.41 1022.19 1022.79 1023.23 1023.83 1024.32 1024.95 1025.35 1025.70 1026.13 1026.49 1027.13 1027.73 1028.15 1028.35 1028.45 1028.63 1028.67 1028.51 1028.03 1027.38 1026.64 1026.00 1025.32 1024.55 1023.90 1023.66 1023.24 1022.84 1022.65 1022.09 1021.65 1021.40
Wind_Speed
18 15 16 16 18 16 13 12 14 19 19 18 17 15 14 14 13 11 12 11 10 8 7 7 7 7 5 4 5 5 4 4 5 6 4 7 7 5 7 6 9 9 9
14 14 15 18 15 10 14 14 21 20 19 19 18 17 15 14 14 13 13 10 11 10 8 10 9 7 7 9 7 7 6 6 4 8 8 6 6 11 9 10 11 10 10
12 9 8 10 11 14 18 19 20 21 20 18 19 17 15 13 15 13 12 11 12 11 10 8 9 6 9 6 7 7 6 7 6 6 7 6 7 12 13 12 12 11 9
13 6 7 12 20 20 21 20 21 21 20 18 17 16 14 14 14 14 13 12 13 10 9 8 7 8 6 7 6 5 5 6 7 7 6 8 9 12 8 10 12 10 11
13 14 15 11 20 22 21 20 18 19 18 18 17 15 14 12 10 13 12 12 10 8 8 9 6 10 12 5 3 5 6 6 6 7 7 7 9 11 11 10 10 10 13
15 16 19 10 19 21 19 19 19 18 18 20 16 15 14 9 15 14 12 9 10 6 7 7 10 14 11 12 9 12 7 3 5 4 5 8 9 8 8 9 10 10 9
11 14 20 14 15 17 21 20 19 18 18 18 15 14 13 11 15 13 12 9 9 8 8 9 9 8 10 9 13 13 4 7 9 5 4 4 5 6 7 9 11 10 10
10 13 17 21 17 16 18 21 17 14 16 16 15 14 13 11 13 14 14 11 10 10 9 10 9 8 10 10 8 8 7 3 7 6 4 5 4 4 5 7 9 10 10
6 12 16 18 17 17 20 17 16 16 14 14 13 15 14 11 13 9 11 10 10 10 10 10 9 8 11 14 7 7 6 5 9 15 4 1 1 5 6 8 8 7 8
11 5 14 18 20 20 19 18 16 15 17 13 13 13 15 10 11 9 8 7 9 6 7 7 8 5 10 10 6 5 6 8 9 10 7 5 7 2 9 7 8 8 7
17 5 16 15 18 20 21 16 17 15 16 14 14 12 12 11 11 15 9 4 6 7 7 4 2 4 8 11 8 5 5 9 8 6 9 10 9 9 10 10 7 6 7
17 6 17 14 13 15 23 17 15 16 16 13 13 11 9 9 10 16 15 14 15 9 5 2 3 4 8 12 10 11 13 9 7 6 9 10 10 10 11 10 11 8 6
12 12 16 16 16 16 20 17 15 13 11 10 10 9 8 7 7 14 13 14 11 5 3 3 4 5 8 10 10 8 8 8 7 8 10 9 9 9 10 9 10 11 10
15 15 16 18 18 17 13 10 10 9 9 9 10 9 9 8 6 5 4 4 4 3 2 4 3 3 5 4 6 8 8 8 8 9 9 9 8 8 9 10 10 10 9
15 15 16 14 15 13 11 8 7 6 7 10 10 9 9 7 3 3 7 4 4 3 5 4 5 5 5 5 6 7 9 9 9 9 9 10 9 9 10 9 9 9 9
14 12 12 12 11 12 13 14 23 24 25 22 20 12 8 8 7 13 9 8 5 6 6 6 5 6 7 7 7 8 9 10 9 9 8 9 9 9 10 9 10 10 10
14 14 12 12 10 12 12 12 15 17 24 21 18 13 11 9 8 7 10 11 12 6 7 7 6 7 7 7 7 8 10 9 10 8 9 9 8 9 10 9 10 11 10
17 22 12 10 10 10 11 11 11 13 12 9 9 6 6 7 6 7 7 2 9 8 7 7 7 7 7 8 7 8 9 8 8 9 9 9 8 8 9 10 8 12 10
15 12 12 9 6 10 11 12 11 11 10 8 5 1 3 2 1 2 4 7 7 7 7 7 7 7 7 8 8 9 9 8 8 9 9 8 8 6 9 10 8 12 12
13 16 11 10 10 11 11 11 12 10 10 8 6 4 3 4 8 7 8 7 7 7 7 8 7 7 9 9 9 9 8 8 8 9 10 9 8 6 9 10 9 10 10
9 10 10 10 11 11 10 10 10 10 8 7 5 3 7 9 8 8 8 7 6 7 8 8 9 9 9 9 9 9 9 8 9 9 9 9 9 7 9 9 9 9 10
8 8 9 11 10 10 9 9 8 9 10 8 9 8 9 8 9 8 8 7 8 9 8 8 9 9 9 8 8 9 9 8 9 10 10 8 9 10 9 10 10 10 11
1 6 11 10 9 9 9 11 9 9 10 9 8 9 9 8 8 8 8 8 9 8 9 10 9 8 8 8 8 7 7 7 8 9 9 6 10 8 10 10 10 11 11
1 8 8 10 8 10 10 10 9 9 9 9 9 9 9 8 8 9 9 9 8 8 9 9 9 11 9 9 8 8 6 7 7 8 12 7 9 9 11 10 9 14 11
4 7 9 8 9 9 10 10 8 9 10 10 9 9 9 9 9 9 9 8 9 9 11 9 8 11 14 14 13 14 13 13 9 9 7 9 12 13 12 11 11 10 14
3 8 6 8 10 9 8 7 9 10 10 9 9 9 9 9 8 8 8 9 9 9 10 8 11 15 15 12 13 13 14 15 13 13 7 8 8 10 8 12 16 10 12
Wind_Direction
185 185 196 200 190 183 168 163 131 119 122 119 118 113 110 113 101 104 96 93 89 82 72 65 66 37 28 20 31 22 5 16 314 313 304 308 303 26 358 338 14 346 341
192 188 175 203 176 163 171 134 115 122 119 118 113 111 111 105 103 96 99 93 89 83 65 60 46 53 34 23 29 11 15 342 321 317 319 312 2 21 352 9 0 341 333
194 187 179 183 158 148 124 117 120 113 112 111 113 112 109 115 101 102 103 101 91 77 78 66 54 46 41 16 29 20 5 334 329 330 331 358 2 16 2 352 340 332 335
161 136 113 120 122 113 110 109 112 112 113 111 109 114 117 113 115 114 104 95 91 92 91 77 71 54 44 25 29 358 1 349 346 349 344 351 3 357 352 342 334 338 337
103 133 98 130 123 113 110 107 106 106 106 106 108 104 105 107 105 106 107 110 105 119 118 100 78 53 47 22 343 339 352 1 3 346 3 356 353 346 347 340 329 333 330
133 112 114 142 111 111 105 103 104 107 107 110 112 116 111 109 107 113 111 120 109 111 100 122 89 48 16 3 354 321 252 337 354 338 359 352 338 333 340 342 329 339 336
113 131 114 106 107 112 119 114 108 117 115 110 112 106 109 106 106 96 83 88 89 76 63 53 60 46 30 3 345 327 184 214 252 286 330 324 323 4 334 336 331 328 319
107 115 106 122 118 115 103 105 107 104 109 114 113 114 112 104 95 94 90 90 78 60 58 67 59 40 29 13 332 12 19 356 299 278 300 28 17 342 352 334 330 326 311
71 120 115 106 112 106 103 106 112 110 109 104 105 113 113 106 87 69 113 100 93 81 68 55 59 45 14 7 11 4 346 341 326 320 354 67 13 349 345 332 338 340 325
42 68 109 111 117 113 110 107 107 111 108 112 109 95 90 81 57 51 120 121 115 107 95 82 59 38 357 348 337 350 343 333 323 310 79 40 17 76 18 348 341 331 318
71 19 90 103 113 114 110 111 111 112 104 106 105 97 86 75 61 65 58 110 138 113 90 80 83 359 326 310 313 336 319 309 309 15 41 24 2 0 359 344 354 333 321
83 111 92 97 106 110 105 108 106 105 105 103 104 96 81 70 59 63 65 65 73 86 100 126 136 212 281 298 319 335 335 339 4 33 37 22 2 352 355 346 342 327 305
105 104 105 103 100 100 103 104 101 106 110 112 99 101 98 86 73 69 72 79 92 106 132 136 321 312 263 274 259 295 11 15 10 39 34 12 356 346 343 340 347 335 341
110 104 101 98 97 93 91 97 108 117 114 113 111 109 105 102 108 114 110 92 83 125 14 266 223 280 300 288 36 51 23 20 9 49 27 7 346 353 356 351 345 349 346
104 104 101 92 91 87 65 66 70 40 101 119 127 121 110 103 107 67 82 66 37 32 318 57 51 40 35 30 42 46 31 22 10 46 17 2 2 359 356 353 348 351 354
109 103 105 99 99 102 97 83 62 76 74 69 70 85 76 106 111 77 62 29 359 354 69 60 50 42 41 30 33 38 38 21 13 29 7 3 357 356 354 351 357 0 355
98 98 96 97 99 99 97 96 97 68 67 67 68 74 78 101 73 57 38 44 69 87 75 62 51 50 39 26 36 46 42 21 16 8 9 356 354 356 354 353 1 360 357
88 81 83 81 83 97 103 106 101 101 100 91 52 82 90 95 78 48 27 48 79 65 63 64 58 40 44 30 30 48 48 26 19 3 357 347 358 354 357 356 7 2 357
108 105 107 103 119 114 105 101 100 101 103 110 121 159 219 193 161 219 243 76 81 76 73 61 55 51 35 37 28 42 46 26 10 358 350 347 351 5 4 358 9 7 1
105 117 129 136 121 106 105 110 110 113 118 116 124 136 116 88 82 76 72 71 66 66 71 70 58 50 46 37 29 29 31 25 9 0 347 352 349 10 13 3 6 14 6
135 146 126 116 107 111 120 122 126 128 136 123 105 86 98 87 85 77 70 63 62 64 62 58 56 47 41 42 28 29 21 14 3 351 347 343 350 8 18 9 6 21 11
137 131 123 115 120 130 134 129 128 111 107 110 93 83 91 93 90 87 87 83 71 57 48 61 58 55 42 40 37 28 22 2 352 346 343 346 352 10 18 13 11 21 17
198 127 121 130 134 128 124 105 111 116 119 118 124 105 96 93 93 93 89 81 77 73 61 53 55 45 49 35 36 35 17 351 328 339 330 356 358 18 14 14 16 24 20
16 129 118 117 132 109 112 114 122 141 138 113 106 100 94 92 94 90 84 80 75 70 74 78 70 60 42 39 25 17 15 353 328 333 323 23 10 13 20 18 18 31 23
106 114 129 132 117 116 119 133 144 117 110 107 110 111 108 99 91 88 90 92 89 81 70 59 61 58 49 39 23 10 352 346 352 336 321 9 25 8 43 19 19 35 32
131 141 152 129 122 122 137 143 123 120 114 114 113 109 107 102 99 97 93 91 88 85 80 66 57 54 47 31 15 360 355 351 352 344 346 16 37 20 35 34 20 24 36